TimeCDT,TemperatureF,Dew PointF,Humidity,Sea Level PressureIn,VisibilityMPH,Wind Direction,Wind SpeedMPH,Gust SpeedMPH,PrecipitationIn,Events,Conditions,WindDirDegrees,DateUTC
12:15 AM,64.4,50.0,59,30.06,10.0,NE,4.6,-,N/A,,Clear,50,2013-06-14 05:15:00
12:35 AM,64.4,51.8,64,30.07,10.0,NE,5.8,-,N/A,,Clear,50,2013-06-14 05:35:00
12:55 AM,64.4,51.8,64,30.07,10.0,NE,4.6,-,N/A,,Clear,50,2013-06-14 05:55:00
1:15 AM,64.4,51.8,64,30.07,10.0,ENE,4.6,-,N/A,,Clear,60,2013-06-14 06:15:00
1:35 AM,62.6,51.8,68,30.08,10.0,NE,6.9,-,N/A,,Clear,50,2013-06-14 06:35:00
1:55 AM,62.6,51.8,68,30.08,10.0,ENE,5.8,-,N/A,,Clear,60,2013-06-14 06:55:00
2:15 AM,62.6,53.6,72,30.08,10.0,East,8.1,-,N/A,,Clear,80,2013-06-14 07:15:00
2:35 AM,60.8,53.6,77,30.08,10.0,East,8.1,-,N/A,,Clear,90,2013-06-14 07:35:00
2:55 AM,60.8,53.6,77,30.09,10.0,East,8.1,-,N/A,,Clear,80,2013-06-14 07:55:00
3:15 AM,60.8,53.6,77,30.09,10.0,East,8.1,-,N/A,,Clear,100,2013-06-14 08:15:00
3:35 AM,59.0,53.6,82,30.09,10.0,East,6.9,-,N/A,,Clear,100,2013-06-14 08:35:00
3:55 AM,59.0,53.6,82,30.09,10.0,East,4.6,-,N/A,,Clear,100,2013-06-14 08:55:00
4:15 AM,59.0,53.6,82,30.09,10.0,East,6.9,-,N/A,,Clear,100,2013-06-14 09:15:00
4:35 AM,57.2,53.6,88,30.09,10.0,ESE,5.8,-,N/A,,Clear,110,2013-06-14 09:35:00
4:55 AM,57.2,51.8,82,30.10,10.0,ESE,4.6,-,N/A,,Clear,110,2013-06-14 09:55:00
5:15 AM,55.4,51.8,88,30.12,10.0,South,3.5,-,N/A,,Clear,190,2013-06-14 10:15:00
5:35 AM,55.4,51.8,88,30.12,10.0,Calm,Calm,-,N/A,,Clear,0,2013-06-14 10:35:00
5:55 AM,55.4,51.8,88,30.12,7.0,Calm,Calm,-,N/A,,Clear,0,2013-06-14 10:55:00
6:15 AM,55.4,51.8,88,30.13,7.0,Calm,Calm,-,N/A,,Clear,0,2013-06-14 11:15:00
6:35 AM,55.4,53.6,94,30.14,7.0,Calm,Calm,-,N/A,,Clear,0,2013-06-14 11:35:00
6:55 AM,57.2,53.6,88,30.15,10.0,West,3.5,-,N/A,,Clear,260,2013-06-14 11:55:00
7:15 AM,60.8,53.6,77,30.15,10.0,Calm,Calm,-,N/A,,Clear,0,2013-06-14 12:15:00
7:35 AM,60.8,53.6,77,30.16,10.0,Calm,Calm,-,N/A,,Clear,0,2013-06-14 12:35:00
7:55 AM,60.8,53.6,77,30.16,10.0,Calm,Calm,-,N/A,,Clear,0,2013-06-14 12:55:00
8:15 AM,62.6,51.8,68,30.16,10.0,East,3.5,-,N/A,,Clear,80,2013-06-14 13:15:00
8:35 AM,62.6,51.8,68,30.15,10.0,East,6.9,-,N/A,,Clear,80,2013-06-14 13:35:00
8:55 AM,64.4,51.8,64,30.13,10.0,East,9.2,-,N/A,,Clear,80,2013-06-14 13:55:00
9:15 AM,64.4,51.8,64,30.13,10.0,East,9.2,-,N/A,,Clear,90,2013-06-14 14:15:00
9:35 AM,66.2,51.8,60,30.12,10.0,ESE,5.8,-,N/A,,Clear,110,2013-06-14 14:35:00
9:55 AM,68.0,51.8,56,30.12,10.0,East,9.2,-,N/A,,Clear,100,2013-06-14 14:55:00
10:15 AM,68.0,51.8,56,30.12,10.0,East,9.2,-,N/A,,Clear,90,2013-06-14 15:15:00
10:35 AM,69.8,51.8,53,30.13,10.0,ESE,5.8,-,N/A,,Clear,110,2013-06-14 15:35:00
10:55 AM,69.8,51.8,53,30.12,10.0,East,6.9,-,N/A,,Clear,90,2013-06-14 15:55:00
11:15 AM,69.8,53.6,56,30.13,10.0,East,4.6,-,N/A,,Clear,100,2013-06-14 16:15:00
11:35 AM,71.6,51.8,50,30.13,10.0,ESE,6.9,-,N/A,,Clear,110,2013-06-14 16:35:00
11:55 AM,71.6,51.8,50,30.13,10.0,East,5.8,-,N/A,,Clear,100,2013-06-14 16:55:00
12:15 PM,71.6,51.8,50,30.14,10.0,ENE,6.9,-,N/A,,Clear,70,2013-06-14 17:15:00
12:35 PM,73.4,51.8,47,30.13,10.0,ESE,4.6,-,N/A,,Clear,120,2013-06-14 17:35:00
12:55 PM,73.4,50.0,44,30.12,10.0,SE,6.9,-,N/A,,Clear,130,2013-06-14 17:55:00
1:15 PM,73.4,51.8,47,30.12,10.0,South,9.2,-,N/A,,Clear,180,2013-06-14 18:15:00
1:35 PM,75.2,50.0,41,30.11,10.0,SE,6.9,-,N/A,,Clear,140,2013-06-14 18:35:00
1:55 PM,75.2,51.8,44,30.11,10.0,SE,8.1,-,N/A,,Clear,130,2013-06-14 18:55:00
2:15 PM,77.0,50.0,39,30.09,10.0,SSE,5.8,10.4,N/A,,Clear,150,2013-06-14 19:15:00
2:35 PM,75.2,50.0,41,30.09,10.0,SSE,8.1,-,N/A,,Clear,150,2013-06-14 19:35:00
2:55 PM,77.0,50.0,39,30.08,10.0,South,6.9,-,N/A,,Clear,170,2013-06-14 19:55:00
3:15 PM,77.0,50.0,39,30.07,10.0,South,6.9,-,N/A,,Clear,180,2013-06-14 20:15:00
3:35 PM,77.0,50.0,39,30.06,10.0,SSE,6.9,-,N/A,,Clear,150,2013-06-14 20:35:00
3:55 PM,78.8,50.0,36,30.05,10.0,ESE,9.2,-,N/A,,Clear,110,2013-06-14 20:55:00
4:15 PM,78.8,50.0,36,30.03,10.0,ESE,6.9,-,N/A,,Clear,120,2013-06-14 21:15:00
4:35 PM,78.8,46.4,32,30.04,10.0,SSE,8.1,-,N/A,,Clear,160,2013-06-14 21:35:00
4:55 PM,77.0,46.4,34,30.03,10.0,SE,8.1,-,N/A,,Mostly Cloudy,140,2013-06-14 21:55:00
5:15 PM,77.0,50.0,39,30.03,10.0,SE,8.1,-,N/A,,Scattered Clouds,140,2013-06-14 22:15:00
5:35 PM,77.0,48.2,36,30.02,10.0,SSE,5.8,-,N/A,,Scattered Clouds,160,2013-06-14 22:35:00
5:55 PM,77.0,50.0,39,30.01,10.0,SSE,6.9,-,N/A,,Scattered Clouds,160,2013-06-14 22:55:00
6:15 PM,75.2,50.0,41,30.01,10.0,SSE,6.9,-,N/A,,Scattered Clouds,160,2013-06-14 23:15:00
6:35 PM,73.4,51.8,47,30.01,10.0,SSE,3.5,-,N/A,,Scattered Clouds,160,2013-06-14 23:35:00
6:55 PM,73.4,51.8,47,30.02,10.0,South,4.6,-,N/A,,Scattered Clouds,180,2013-06-14 23:55:00
7:15 PM,73.4,51.8,47,30.03,10.0,SSE,3.5,-,N/A,,Mostly Cloudy,160,2013-06-15 00:15:00
7:35 PM,73.4,53.6,50,30.03,10.0,SSW,3.5,-,N/A,,Overcast,200,2013-06-15 00:35:00
7:55 PM,71.6,53.6,53,30.02,10.0,Calm,Calm,-,N/A,,Mostly Cloudy,0,2013-06-15 00:55:00
8:15 PM,71.6,53.6,53,30.02,10.0,Calm,Calm,-,N/A,,Scattered Clouds,0,2013-06-15 01:15:00
8:35 PM,69.8,55.4,60,30.01,10.0,SSE,3.5,-,N/A,,Clear,160,2013-06-15 01:35:00
8:55 PM,69.8,53.6,56,30.00,10.0,SE,4.6,-,N/A,,Clear,130,2013-06-15 01:55:00
9:15 PM,68.0,55.4,64,30.00,10.0,ESE,3.5,-,N/A,,Clear,120,2013-06-15 02:15:00
9:35 PM,68.0,55.4,64,29.99,10.0,ESE,4.6,-,N/A,,Clear,110,2013-06-15 02:35:00
9:55 PM,68.0,55.4,64,30.00,10.0,ESE,5.8,-,N/A,,Clear,110,2013-06-15 02:55:00
10:15 PM,68.0,53.6,60,30.01,10.0,ESE,4.6,-,N/A,,Clear,110,2013-06-15 03:15:00
10:35 PM,68.0,55.4,64,30.01,10.0,ESE,5.8,-,N/A,,Clear,120,2013-06-15 03:35:00
10:55 PM,68.0,53.6,60,29.99,10.0,ESE,5.8,-,N/A,,Clear,120,2013-06-15 03:55:00
11:15 PM,68.0,53.6,60,29.99,10.0,ESE,5.8,-,N/A,,Clear,110,2013-06-15 04:15:00
11:35 PM,68.0,55.4,64,29.97,10.0,ESE,5.8,-,N/A,,Clear,110,2013-06-15 04:35:00
11:55 PM,68.0,55.4,64,30.01,10.0,SE,3.5,-,N/A,,Clear,140,2013-06-15 04:55:00